| time (UTC) | temp F | wind direction | speed MPH | gust MPH | rain 1hr in | rain 24hr in | rain mn in | humidity % | barometer mb |
| 20260508151006 | 61 | 239 | 3.0 | 8.0 | 0.00 | 0.00 | 0.00 | 41 | 1022.0 |
| 20260508150503 | 62 | 247 | 3.0 | 7.0 | 0.00 | 0.00 | 0.00 | 40 | 1022.0 |
| 20260508145503 | 62 | 240 | 2.0 | 6.0 | 0.00 | 0.00 | 0.00 | 40 | 1022.0 |
| 20260508145006 | 61 | 246 | 2.0 | 6.0 | 0.00 | 0.00 | 0.00 | 43 | 1022.0 |
| 20260508144503 | 61 | 250 | 2.0 | 6.0 | 0.00 | 0.00 | 0.00 | 44 | 1022.0 |
| 20260508144005 | 61 | 242 | 2.0 | 9.0 | 0.00 | 0.00 | 0.00 | 42 | 1022.0 |
| 20260508143503 | 61 | 243 | 3.0 | 9.0 | 0.00 | 0.00 | 0.00 | 43 | 1022.0 |
| 20260508143004 | 61 | 248 | 3.0 | 6.0 | 0.00 | 0.00 | 0.00 | 44 | 1022.0 |
| 20260508142504 | 61 | 250 | 4.0 | 8.0 | 0.00 | 0.00 | 0.00 | 44 | 1021.0 |
| 20260508142006 | 61 | 249 | 3.0 | 8.0 | 0.00 | 0.00 | 0.00 | 44 | 1021.0 |
| 20260508141503 | 60 | 256 | 3.0 | 9.0 | 0.00 | 0.00 | 0.00 | 45 | 1021.0 |
| 20260508141005 | 60 | 259 | 3.0 | 9.0 | 0.00 | 0.00 | 0.00 | 45 | 1022.0 |
| 20260508140504 | 61 | 250 | 4.0 | 8.0 | 0.00 | 0.00 | 0.00 | 45 | 1022.0 |
| 20260508140006 | 61 | 248 | 4.0 | 8.0 | 0.00 | 0.00 | 0.00 | 46 | 1022.0 |
| 20260508135004 | 60 | 286 | 4.0 | 8.0 | 0.00 | 0.00 | 0.00 | 44 | 1021.0 |
| 20260508133503 | 60 | 274 | 3.0 | 7.0 | 0.00 | 0.00 | 0.00 | 46 | 1022.0 |
| 20260508132503 | 60 | 243 | 3.0 | 6.0 | 0.00 | 0.00 | 0.00 | 42 | 1021.0 |
| 20260508132005 | 61 | 259 | 2.0 | 7.0 | 0.00 | 0.00 | 0.00 | 42 | 1021.0 |
| 20260508131005 | 61 | 249 | 3.0 | 8.0 | 0.00 | 0.00 | 0.00 | 44 | 1022.0 |
| 20260508130504 | 61 | 251 | 3.0 | 6.0 | 0.00 | 0.00 | 0.00 | 45 | 1022.0 |
| 20260508130005 | 61 | 252 | 4.0 | 8.0 | 0.00 | 0.00 | 0.00 | 43 | 1022.0 |
| 20260508125503 | 61 | 239 | 4.0 | 9.0 | 0.00 | 0.00 | 0.00 | 43 | 1022.0 |
| 20260508124504 | 61 | 270 | 3.0 | 6.0 | 0.00 | 0.00 | 0.00 | 42 | 1022.0 |
| 20260508124005 | 61 | 266 | 3.0 | 10.0 | 0.00 | 0.00 | 0.00 | 43 | 1022.0 |
| 20260508123503 | 61 | 255 | 4.0 | 10.0 | 0.00 | 0.00 | 0.00 | 44 | 1022.0 |
| 20260508122503 | 62 | 224 | 4.0 | 8.0 | 0.00 | 0.00 | 0.00 | 43 | 1022.0 |
| 20260508122006 | 62 | 219 | 4.0 | 9.0 | 0.00 | 0.00 | 0.00 | 43 | 1022.0 |
| 20260508121503 | 62 | 230 | 4.0 | 9.0 | 0.00 | 0.00 | 0.00 | 42 | 1022.0 |
| 20260508121006 | 62 | 220 | 5.0 | 14.0 | 0.00 | 0.00 | 0.00 | 43 | 1022.0 |
| 20260508120503 | 62 | 208 | 7.0 | 14.0 | 0.00 | 0.00 | 0.00 | 43 | 1022.0 |
| 20260508120005 | 62 | 206 | 7.0 | 14.0 | 0.00 | 0.00 | 0.00 | 40 | 1022.0 |
| 20260508115005 | 61 | 225 | 5.0 | 10.0 | 0.00 | 0.00 | 0.00 | 43 | 1022.0 |
| 20260508114504 | 61 | 229 | 5.0 | 9.0 | 0.00 | 0.00 | 0.00 | 43 | 1022.0 |
| 20260508114004 | 62 | 235 | 6.0 | 9.0 | 0.00 | 0.00 | 0.00 | 42 | 1022.0 |
| 20260508113005 | 62 | 241 | 6.0 | 10.0 | 0.00 | 0.00 | 0.00 | 42 | 1022.0 |
| 20260508112503 | 62 | 240 | 6.0 | 10.0 | 0.00 | 0.00 | 0.00 | 42 | 1022.0 |
| 20260508111504 | 62 | 227 | 6.0 | 9.0 | 0.00 | 0.00 | 0.00 | 44 | 1022.0 |
| 20260508110504 | 62 | 222 | 6.0 | 11.0 | 0.00 | 0.00 | 0.00 | 40 | 1022.0 |
| 20260508110005 | 62 | 218 | 6.0 | 11.0 | 0.00 | 0.00 | 0.00 | 41 | 1022.0 |
| 20260508105005 | 62 | 228 | 7.0 | 12.0 | 0.00 | 0.00 | 0.00 | 42 | 1022.0 |
| 20260508104503 | 62 | 226 | 6.0 | 11.0 | 0.00 | 0.00 | 0.00 | 41 | 1022.0 |
| 20260508104005 | 62 | 228 | 4.0 | 11.0 | 0.00 | 0.00 | 0.00 | 40 | 1022.0 |
| 20260508103503 | 62 | 239 | 4.0 | 8.0 | 0.00 | 0.00 | 0.00 | 40 | 1022.0 |
| 20260508102503 | 62 | 222 | 6.0 | 9.0 | 0.00 | 0.00 | 0.00 | 41 | 1021.0 |
| 20260508102005 | 62 | 192 | 5.0 | 9.0 | 0.00 | 0.00 | 0.00 | 41 | 1021.0 |
| 20260508101503 | 62 | 202 | 4.0 | 8.0 | 0.00 | 0.00 | 0.00 | 41 | 1021.0 |
| 20260508101005 | 61 | 191 | 5.0 | 14.0 | 0.00 | 0.00 | 0.00 | 40 | 1022.0 |
| 20260508100503 | 61 | 177 | 4.0 | 14.0 | 0.00 | 0.00 | 0.00 | 41 | 1022.0 |
| 20260508100005 | 61 | 207 | 3.0 | 10.0 | 0.00 | 0.00 | 0.00 | 40 | 1022.0 |
| 20260508095504 | 61 | 201 | 6.0 | 13.0 | 0.00 | 0.00 | 0.00 | 41 | 1022.0 |
| 20260508095005 | 61 | 201 | 6.0 | 13.0 | 0.00 | 0.00 | 0.00 | 41 | 1022.0 |
| 20260508094505 | 61 | 199 | 6.0 | 13.0 | 0.00 | 0.00 | 0.00 | 41 | 1022.0 |
| 20260508094005 | 61 | 187 | 6.0 | 13.0 | 0.00 | 0.00 | 0.00 | 42 | 1022.0 |
| 20260508093505 | 61 | 184 | 5.0 | 10.0 | 0.00 | 0.00 | 0.00 | 43 | 1022.0 |
| 20260508093004 | 61 | 182 | 6.0 | 9.0 | 0.00 | 0.00 | 0.00 | 42 | 1022.0 |
| 20260508092504 | 61 | 169 | 6.0 | 11.0 | 0.00 | 0.00 | 0.00 | 44 | 1022.0 |
| 20260508092006 | 61 | 176 | 6.0 | 14.0 | 0.00 | 0.00 | 0.00 | 44 | 1022.0 |
| 20260508091505 | 60 | 157 | 7.0 | 14.0 | 0.00 | 0.00 | 0.00 | 43 | 1022.0 |
| 20260508091005 | 60 | 131 | 7.0 | 13.0 | 0.00 | 0.00 | 0.00 | 43 | 1022.0 |
| 20260508090005 | 60 | 135 | 8.0 | 15.0 | 0.00 | 0.00 | 0.00 | 44 | 1022.0 |
| 20260508085006 | 60 | 119 | 9.0 | 15.0 | 0.00 | 0.00 | 0.00 | 45 | 1022.0 |
| 20260508084505 | 60 | 112 | 10.0 | 15.0 | 0.00 | 0.00 | 0.00 | 45 | 1022.0 |
| 20260508084006 | 60 | 101 | 10.0 | 15.0 | 0.00 | 0.00 | 0.00 | 45 | 1022.0 |
| 20260508083506 | 60 | 108 | 11.0 | 18.0 | 0.00 | 0.00 | 0.00 | 43 | 1022.0 |
| 20260508083006 | 60 | 130 | 10.0 | 18.0 | 0.00 | 0.00 | 0.00 | 45 | 1022.0 |
| 20260508082505 | 60 | 167 | 8.0 | 18.0 | 0.00 | 0.00 | 0.00 | 46 | 1022.0 |
| 20260508082005 | 59 | 169 | 7.0 | 18.0 | 0.00 | 0.00 | 0.00 | 45 | 1022.0 |
| 20260508081504 | 59 | 150 | 6.0 | 15.0 | 0.00 | 0.00 | 0.00 | 48 | 1022.0 |
| 20260508081005 | 59 | 122 | 7.0 | 10.0 | 0.00 | 0.00 | 0.00 | 48 | 1022.0 |
| 20260508080504 | 59 | 96 | 7.0 | 10.0 | 0.00 | 0.00 | 0.00 | 49 | 1022.0 |
| 20260508080007 | 58 | 99 | 6.0 | 10.0 | 0.00 | 0.00 | 0.00 | 49 | 1022.0 |
| 20260508075006 | 58 | 114 | 7.0 | 13.0 | 0.00 | 0.00 | 0.00 | 48 | 1021.0 |
| 20260508074504 | 57 | 111 | 6.0 | 10.0 | 0.00 | 0.00 | 0.00 | 50 | 1021.0 |
| 20260508074006 | 57 | 102 | 6.0 | 10.0 | 0.00 | 0.00 | 0.00 | 51 | 1021.0 |
| 20260508073505 | 57 | 97 | 7.0 | 12.0 | 0.00 | 0.00 | 0.00 | 52 | 1021.0 |
| 20260508073005 | 57 | 96 | 6.0 | 12.0 | 0.00 | 0.00 | 0.00 | 50 | 1021.0 |
| 20260508072504 | 56 | 92 | 4.0 | 9.0 | 0.00 | 0.00 | 0.00 | 52 | 1022.0 |
| 20260508072005 | 56 | 99 | 5.0 | 8.0 | 0.00 | 0.00 | 0.00 | 53 | 1022.0 |
| 20260508071005 | 55 | 101 | 8.0 | 10.0 | 0.00 | 0.00 | 0.00 | 52 | 1023.0 |
| 20260508070505 | 55 | 98 | 7.0 | 9.0 | 0.00 | 0.00 | 0.00 | 53 | 1023.0 |
| 20260508070006 | 54 | 99 | 8.0 | 13.0 | 0.00 | 0.00 | 0.00 | 54 | 1023.0 |
| 20260508065005 | 53 | 106 | 13.0 | 19.0 | 0.00 | 0.00 | 0.00 | 54 | 1022.0 |
| 20260508064504 | 53 | 113 | 13.0 | 19.0 | 0.00 | 0.00 | 0.00 | 54 | 1022.0 |
| 20260508063504 | 51 | 103 | 12.0 | 21.0 | 0.00 | 0.00 | 0.00 | 56 | 1022.0 |
| 20260508063005 | 51 | 99 | 10.0 | 15.0 | 0.00 | 0.00 | 0.00 | 58 | 1022.0 |
| 20260508062006 | 48 | 99 | 12.0 | 18.0 | 0.00 | 0.00 | 0.00 | 56 | 1022.0 |
| 20260508061505 | 48 | 95 | 9.0 | 12.0 | 0.00 | 0.00 | 0.00 | 57 | 1022.0 |
| 20260508061005 | 48 | 95 | 8.0 | 11.0 | 0.00 | 0.00 | 0.00 | 61 | 1022.0 |
| 20260508060505 | 47 | 100 | 8.0 | 11.0 | 0.00 | 0.00 | 0.00 | 61 | 1022.0 |
| 20260508060005 | 46 | 100 | 8.0 | 11.0 | 0.00 | 0.00 | 0.00 | 63 | 1022.0 |
| 20260508055504 | 45 | 96 | 8.0 | 11.0 | 0.00 | 0.00 | 0.00 | 65 | 1021.0 |
| 20260508055004 | 44 | 91 | 7.0 | 10.0 | 0.00 | 0.00 | 0.00 | 67 | 1021.0 |
| 20260508054005 | 42 | 99 | 7.0 | 9.0 | 0.00 | 0.00 | 0.00 | 68 | 1021.0 |
| 20260508053505 | 42 | 97 | 7.0 | 9.0 | 0.00 | 0.00 | 0.00 | 68 | 1021.0 |
| 20260508053005 | 41 | 97 | 7.0 | 9.0 | 0.00 | 0.00 | 0.00 | 68 | 1021.0 |
| 20260508052004 | 41 | 97 | 7.0 | 10.0 | 0.00 | 0.00 | 0.00 | 68 | 1021.0 |
| 20260508051504 | 40 | 98 | 7.0 | 8.0 | 0.00 | 0.00 | 0.00 | 69 | 1021.0 |
| 20260508051005 | 40 | 93 | 6.0 | 8.0 | 0.00 | 0.00 | 0.00 | 69 | 1020.0 |
| 20260508045505 | 39 | 97 | 6.0 | 8.0 | 0.00 | 0.00 | 0.00 | 68 | 1020.0 |
| 20260508044504 | 39 | 95 | 7.0 | 9.0 | 0.00 | 0.00 | 0.00 | 68 | 1020.0 |
| 20260508044005 | 39 | 97 | 6.0 | 8.0 | 0.00 | 0.00 | 0.00 | 67 | 1020.0 |
| 20260508043504 | 39 | 98 | 6.0 | 8.0 | 0.00 | 0.00 | 0.00 | 67 | 1020.0 |
| 20260508043005 | 39 | 100 | 6.0 | 8.0 | 0.00 | 0.00 | 0.00 | 68 | 1020.0 |
| 20260508042005 | 38 | 108 | 5.0 | 7.0 | 0.00 | 0.00 | 0.00 | 69 | 1019.0 |
| 20260508041006 | 38 | 102 | 3.0 | 5.0 | 0.00 | 0.00 | 0.00 | 69 | 1020.0 |
| 20260508040005 | 37 | 104 | 1.0 | 4.0 | 0.00 | 0.00 | 0.00 | 68 | 1020.0 |
| 20260508035504 | 37 | 0 | 0.0 | 0.0 | 0.00 | 0.00 | 0.00 | 68 | 1019.0 |
| 20260508035004 | 37 | 0 | 0.0 | 0.0 | 0.00 | 0.00 | 0.00 | 68 | 1019.0 |
| 20260508034505 | 37 | 0 | 0.0 | 0.0 | 0.00 | 0.00 | 0.00 | 68 | 1019.0 |
| 20260508034005 | 37 | 0 | 0.0 | 0.0 | 0.00 | 0.00 | 0.00 | 67 | 1019.0 |
| 20260508033505 | 37 | 0 | 0.0 | 0.0 | 0.00 | 0.00 | 0.00 | 66 | 1019.0 |
| 20260508033006 | 37 | 0 | 0.0 | 0.0 | 0.00 | 0.00 | 0.00 | 66 | 1019.0 |
| 20260508032006 | 37 | 0 | 0.0 | 0.0 | 0.00 | 0.00 | 0.00 | 65 | 1021.0 |
| 20260508031505 | 37 | 0 | 0.0 | 0.0 | 0.00 | 0.00 | 0.00 | 65 | 1021.0 |
| 20260508031006 | 37 | 146 | 1.0 | 5.0 | 0.00 | 0.00 | 0.00 | 65 | 1020.0 |
| 20260508030504 | 38 | 145 | 1.0 | 5.0 | 0.00 | 0.00 | 0.00 | 65 | 1020.0 |
| 20260508025504 | 38 | 112 | 6.0 | 8.0 | 0.00 | 0.00 | 0.00 | 65 | 1020.0 |
| 20260508025005 | 38 | 109 | 7.0 | 10.0 | 0.00 | 0.00 | 0.00 | 65 | 1020.0 |
| 20260508024505 | 38 | 109 | 8.0 | 10.0 | 0.00 | 0.00 | 0.00 | 65 | 1020.0 |
| 20260508024005 | 38 | 108 | 8.0 | 10.0 | 0.00 | 0.00 | 0.00 | 66 | 1020.0 |
| 20260508023504 | 38 | 102 | 8.0 | 10.0 | 0.00 | 0.00 | 0.00 | 66 | 1020.0 |
| 20260508023004 | 38 | 100 | 7.0 | 10.0 | 0.00 | 0.00 | 0.00 | 67 | 1020.0 |
| 20260508022506 | 38 | 100 | 7.0 | 11.0 | 0.00 | 0.00 | 0.00 | 67 | 1019.0 |
| 20260508021504 | 38 | 100 | 5.0 | 7.0 | 0.00 | 0.00 | 0.00 | 64 | 1019.0 |
| 20260508021005 | 38 | 93 | 5.0 | 7.0 | 0.00 | 0.00 | 0.00 | 63 | 1020.0 |
| 20260508020504 | 38 | 98 | 4.0 | 7.0 | 0.00 | 0.00 | 0.00 | 64 | 1020.0 |
| 20260508020005 | 38 | 105 | 3.0 | 6.0 | 0.00 | 0.00 | 0.00 | 63 | 1020.0 |
| 20260508015504 | 38 | 103 | 4.0 | 7.0 | 0.00 | 0.00 | 0.00 | 63 | 1019.0 |
| 20260508015004 | 38 | 98 | 5.0 | 7.0 | 0.00 | 0.00 | 0.00 | 63 | 1019.0 |
| 20260508014504 | 38 | 96 | 5.0 | 6.0 | 0.00 | 0.00 | 0.00 | 63 | 1019.0 |
| 20260508014005 | 38 | 98 | 5.0 | 6.0 | 0.00 | 0.00 | 0.00 | 63 | 1019.0 |
| 20260508013505 | 38 | 94 | 5.0 | 6.0 | 0.00 | 0.00 | 0.00 | 63 | 1019.0 |
| 20260508013005 | 38 | 90 | 5.0 | 6.0 | 0.00 | 0.00 | 0.00 | 63 | 1019.0 |
| 20260508012505 | 38 | 97 | 5.0 | 6.0 | 0.00 | 0.00 | 0.00 | 63 | 1019.0 |
| 20260508012005 | 38 | 107 | 5.0 | 6.0 | 0.00 | 0.00 | 0.00 | 63 | 1019.0 |
| 20260508011504 | 38 | 101 | 5.0 | 6.0 | 0.00 | 0.00 | 0.00 | 64 | 1019.0 |
| 20260508011005 | 38 | 98 | 5.0 | 6.0 | 0.00 | 0.00 | 0.00 | 64 | 1019.0 |
| 20260508010504 | 38 | 99 | 3.0 | 6.0 | 0.00 | 0.00 | 0.00 | 64 | 1019.0 |
| 20260508010004 | 39 | 91 | 3.0 | 6.0 | 0.00 | 0.00 | 0.00 | 63 | 1019.0 |
| 20260508005505 | 39 | 103 | 4.0 | 7.0 | 0.00 | 0.00 | 0.00 | 62 | 1019.0 |
| 20260508005005 | 39 | 101 | 5.0 | 7.0 | 0.00 | 0.00 | 0.00 | 62 | 1019.0 |
| 20260508004505 | 39 | 94 | 4.0 | 5.0 | 0.00 | 0.00 | 0.00 | 60 | 1019.0 |
| 20260508004005 | 39 | 99 | 2.0 | 5.0 | 0.00 | 0.00 | 0.00 | 60 | 1019.0 |
| 20260508003505 | 39 | 106 | 2.0 | 5.0 | 0.00 | 0.00 | 0.00 | 59 | 1019.0 |
| 20260508002505 | 40 | 110 | 3.0 | 5.0 | 0.00 | 0.00 | 0.00 | 58 | 1019.0 |
| 20260508002005 | 40 | 113 | 1.0 | 5.0 | 0.00 | 0.00 | 0.00 | 57 | 1019.0 |
| 20260508001005 | 41 | 135 | 0.0 | 2.0 | 0.00 | 0.00 | 0.00 | 56 | 1019.0 |
| 20260508000504 | 41 | 135 | 0.0 | 2.0 | 0.00 | 0.00 | 0.00 | 55 | 1019.0 |
| 20260507235505 | 41 | 0 | 0.0 | 0.0 | 0.00 | 0.00 | 0.00 | 55 | 1019.0 |
| 20260507235005 | 42 | 0 | 0.0 | 0.0 | 0.00 | 0.00 | 0.00 | 55 | 1019.0 |
| 20260507234504 | 42 | 0 | 0.0 | 0.0 | 0.00 | 0.00 | 0.00 | 55 | 1019.0 |
| 20260507234005 | 42 | 112 | 0.0 | 2.0 | 0.00 | 0.00 | 0.00 | 55 | 1019.0 |
| 20260507233005 | 42 | 93 | 0.0 | 3.0 | 0.00 | 0.00 | 0.00 | 55 | 1019.0 |
| 20260507232505 | 42 | 90 | 0.0 | 4.0 | 0.00 | 0.00 | 0.00 | 55 | 1018.0 |
| 20260507231004 | 42 | 88 | 0.0 | 3.0 | 0.00 | 0.00 | 0.00 | 55 | 1018.0 |
| 20260507230505 | 42 | 87 | 0.0 | 3.0 | 0.00 | 0.00 | 0.00 | 55 | 1018.0 |
| 20260507230005 | 42 | 87 | 2.0 | 4.0 | 0.00 | 0.00 | 0.00 | 55 | 1018.0 |
| 20260507225504 | 42 | 87 | 1.0 | 4.0 | 0.00 | 0.00 | 0.00 | 55 | 1019.0 |
| 20260507225005 | 43 | 0 | 0.0 | 0.0 | 0.00 | 0.00 | 0.00 | 55 | 1019.0 |
| 20260507224505 | 43 | 88 | 0.0 | 5.0 | 0.00 | 0.00 | 0.00 | 54 | 1019.0 |
| 20260507224005 | 43 | 88 | 0.0 | 5.0 | 0.00 | 0.00 | 0.00 | 54 | 1018.0 |
| 20260507223505 | 43 | 0 | 0.0 | 0.0 | 0.00 | 0.00 | 0.00 | 54 | 1018.0 |
| 20260507222505 | 44 | 314 | 0.0 | 1.0 | 0.00 | 0.00 | 0.00 | 53 | 1018.0 |
| 20260507221504 | 44 | 314 | 0.0 | 2.0 | 0.00 | 0.00 | 0.00 | 53 | 1018.0 |
| 20260507221005 | 44 | 319 | 0.0 | 3.0 | 0.00 | 0.00 | 0.00 | 53 | 1018.0 |
| 20260507220504 | 44 | 329 | 0.0 | 4.0 | 0.00 | 0.00 | 0.00 | 53 | 1018.0 |
| 20260507220004 | 44 | 337 | 0.0 | 4.0 | 0.00 | 0.00 | 0.00 | 53 | 1018.0 |
| 20260507215504 | 44 | 0 | 0.0 | 0.0 | 0.00 | 0.00 | 0.00 | 54 | 1018.0 |
| 20260507214504 | 44 | 0 | 0.0 | 0.0 | 0.00 | 0.00 | 0.00 | 54 | 1018.0 |
| 20260507214004 | 44 | 0 | 0.0 | 0.0 | 0.00 | 0.00 | 0.00 | 55 | 1018.0 |
| 20260507213504 | 44 | 0 | 0.0 | 0.0 | 0.00 | 0.00 | 0.00 | 55 | 1018.0 |
| 20260507213005 | 44 | 0 | 0.0 | 0.0 | 0.00 | 0.00 | 0.00 | 55 | 1018.0 |
| 20260507212505 | 45 | 329 | 0.0 | 3.0 | 0.00 | 0.00 | 0.00 | 54 | 1018.0 |
| 20260507211505 | 45 | 292 | 0.0 | 2.0 | 0.00 | 0.00 | 0.00 | 55 | 1018.0 |
| 20260507210504 | 45 | 225 | 0.0 | 2.0 | 0.00 | 0.00 | 0.00 | 54 | 1017.0 |
| 20260507210006 | 45 | 266 | 1.0 | 3.0 | 0.00 | 0.00 | 0.00 | 54 | 1017.0 |
| 20260507205504 | 45 | 270 | 1.0 | 3.0 | 0.00 | 0.00 | 0.00 | 54 | 1017.0 |
| 20260507205005 | 45 | 0 | 0.0 | 0.0 | 0.00 | 0.00 | 0.00 | 54 | 1017.0 |
| 20260507204505 | 45 | 0 | 0.0 | 0.0 | 0.00 | 0.00 | 0.00 | 54 | 1017.0 |
| 20260507204004 | 45 | 0 | 0.0 | 0.0 | 0.00 | 0.00 | 0.00 | 54 | 1018.0 |
| 20260507203504 | 46 | 0 | 0.0 | 0.0 | 0.00 | 0.00 | 0.00 | 54 | 1018.0 |
| 20260507202006 | 46 | 0 | 0.0 | 0.0 | 0.00 | 0.00 | 0.00 | 53 | 1018.0 |
| 20260507201006 | 46 | 0 | 0.0 | 0.0 | 0.00 | 0.00 | 0.00 | 52 | 1018.0 |
| 20260507200504 | 46 | 0 | 0.0 | 0.0 | 0.00 | 0.00 | 0.00 | 52 | 1018.0 |
| 20260507195504 | 47 | 248 | 0.0 | 2.0 | 0.00 | 0.00 | 0.00 | 52 | 1018.0 |
| 20260507195006 | 47 | 0 | 0.0 | 0.0 | 0.00 | 0.00 | 0.00 | 51 | 1018.0 |
| 20260507194504 | 47 | 225 | 0.0 | 3.0 | 0.00 | 0.00 | 0.00 | 51 | 1018.0 |
| 20260507194005 | 47 | 225 | 0.0 | 3.0 | 0.00 | 0.00 | 0.00 | 51 | 1018.0 |
| 20260507193504 | 47 | 0 | 0.0 | 0.0 | 0.00 | 0.00 | 0.00 | 51 | 1018.0 |
| 20260507193005 | 48 | 0 | 0.0 | 0.0 | 0.00 | 0.00 | 0.00 | 51 | 1018.0 |
| 20260507192505 | 48 | 0 | 0.0 | 0.0 | 0.00 | 0.00 | 0.00 | 51 | 1018.0 |
| 20260507192006 | 48 | 237 | 0.0 | 4.0 | 0.00 | 0.00 | 0.00 | 50 | 1018.0 |
| 20260507191504 | 49 | 222 | 0.0 | 4.0 | 0.00 | 0.00 | 0.00 | 50 | 1018.0 |
| 20260507191006 | 49 | 223 | 1.0 | 3.0 | 0.00 | 0.00 | 0.00 | 50 | 1017.0 |
| 20260507190504 | 49 | 218 | 1.0 | 4.0 | 0.00 | 0.00 | 0.00 | 49 | 1017.0 |
| 20260507190005 | 50 | 203 | 0.0 | 4.0 | 0.00 | 0.00 | 0.00 | 49 | 1017.0 |
| 20260507185504 | 50 | 270 | 0.0 | 1.0 | 0.00 | 0.00 | 0.00 | 48 | 1016.0 |
| 20260507185006 | 51 | 270 | 0.0 | 1.0 | 0.00 | 0.00 | 0.00 | 48 | 1016.0 |
| 20260507184504 | 51 | 0 | 0.0 | 0.0 | 0.00 | 0.00 | 0.00 | 47 | 1016.0 |
| 20260507184005 | 51 | 248 | 0.0 | 5.0 | 0.00 | 0.00 | 0.00 | 48 | 1017.0 |
| 20260507183504 | 51 | 261 | 0.0 | 5.0 | 0.00 | 0.00 | 0.00 | 48 | 1017.0 |
| 20260507182504 | 52 | 253 | 1.0 | 5.0 | 0.00 | 0.00 | 0.00 | 47 | 1016.0 |
| 20260507182006 | 52 | 254 | 1.0 | 5.0 | 0.00 | 0.00 | 0.00 | 47 | 1016.0 |
| 20260507181504 | 53 | 269 | 0.0 | 3.0 | 0.00 | 0.00 | 0.00 | 47 | 1016.0 |
| 20260507181004 | 53 | 273 | 1.0 | 6.0 | 0.00 | 0.00 | 0.00 | 47 | 1016.0 |
| 20260507180505 | 53 | 297 | 2.0 | 7.0 | 0.00 | 0.00 | 0.00 | 46 | 1016.0 |
| 20260507175504 | 53 | 312 | 2.0 | 7.0 | 0.00 | 0.00 | 0.00 | 46 | 1016.0 |
| 20260507175005 | 53 | 317 | 2.0 | 7.0 | 0.00 | 0.00 | 0.00 | 45 | 1016.0 |
| 20260507174505 | 54 | 309 | 1.0 | 4.0 | 0.00 | 0.00 | 0.00 | 45 | 1016.0 |
| 20260507173005 | 54 | 312 | 4.0 | 11.0 | 0.00 | 0.00 | 0.00 | 44 | 1015.0 |
| 20260507172504 | 55 | 310 | 4.0 | 11.0 | 0.00 | 0.00 | 0.00 | 43 | 1016.0 |
| 20260507172005 | 55 | 291 | 2.0 | 10.0 | 0.00 | 0.00 | 0.00 | 42 | 1016.0 |
| 20260507171505 | 55 | 305 | 4.0 | 15.0 | 0.00 | 0.00 | 0.00 | 43 | 1016.0 |
| 20260507171005 | 55 | 312 | 7.0 | 15.0 | 0.00 | 0.00 | 0.00 | 42 | 1016.0 |
| 20260507170504 | 55 | 302 | 5.0 | 12.0 | 0.00 | 0.00 | 0.00 | 42 | 1016.0 |
| 20260507170006 | 55 | 302 | 5.0 | 13.0 | 0.00 | 0.00 | 0.00 | 41 | 1016.0 |
| 20260507165005 | 55 | 316 | 8.0 | 13.0 | 0.00 | 0.00 | 0.00 | 40 | 1016.0 |
| 20260507164504 | 55 | 318 | 8.0 | 13.0 | 0.00 | 0.00 | 0.00 | 41 | 1016.0 |
| 20260507164004 | 56 | 318 | 8.0 | 14.0 | 0.00 | 0.00 | 0.00 | 40 | 1017.0 |
| 20260507163505 | 56 | 315 | 8.0 | 14.0 | 0.00 | 0.00 | 0.00 | 41 | 1017.0 |
| 20260507163004 | 56 | 305 | 5.0 | 14.0 | 0.00 | 0.00 | 0.00 | 41 | 1017.0 |
| 20260507162504 | 56 | 270 | 4.0 | 10.0 | 0.00 | 0.00 | 0.00 | 43 | 1016.0 |
| 20260507162006 | 56 | 283 | 5.0 | 11.0 | 0.00 | 0.00 | 0.00 | 42 | 1016.0 |
| 20260507161504 | 56 | 298 | 5.0 | 11.0 | 0.00 | 0.00 | 0.00 | 42 | 1016.0 |
| 20260507160005 | 57 | 309 | 8.0 | 14.0 | 0.00 | 0.00 | 0.00 | 43 | 1016.0 |
| 20260507155505 | 57 | 315 | 8.0 | 15.0 | 0.00 | 0.00 | 0.00 | 43 | 1017.0 |
| 20260507155004 | 57 | 322 | 7.0 | 15.0 | 0.00 | 0.00 | 0.00 | 45 | 1017.0 |
| 20260507154505 | 57 | 313 | 7.0 | 13.0 | 0.00 | 0.00 | 0.00 | 44 | 1017.0 |
| 20260507154005 | 57 | 304 | 7.0 | 13.0 | 0.00 | 0.00 | 0.00 | 45 | 1016.0 |
| 20260507153504 | 57 | 300 | 7.0 | 13.0 | 0.00 | 0.00 | 0.00 | 43 | 1016.0 |
| 20260507153005 | 57 | 278 | 6.0 | 10.0 | 0.00 | 0.00 | 0.00 | 44 | 1016.0 |
| 20260507152504 | 57 | 266 | 6.0 | 11.0 | 0.00 | 0.00 | 0.00 | 45 | 1016.0 |
| 20260507151505 | 57 | 306 | 8.0 | 15.0 | 0.00 | 0.00 | 0.00 | 46 | 1016.0 |